User: anonymous   Login
Location: Caltech
(34.1382°N, 118.1253°W)
Time: 05:35:28
(UTC-07:00)
Language:

IRS-1A Rocket - Orbit

View from above orbital plane
View from above orbital plane
View from above satellite
View from above satellite

Ground track
Ground track

The orbit data is extracted from the following two-line orbital elements,

1 18961U 88021B   15089.15047441 -.00000177  00000-0 -86697-4 0  9990
2 18961 099.2898 072.1693 0053049 287.1276 203.7603 14.00655141382027
Epoch (UTC): 30 March 2015 03:36:40
Eccentricity: 0.0053049
inclination: 99.2898°
perigee height: 853 km
apogee height: 930 km
right ascension of ascending node: 72.1693°
argument of perigee: 287.1276°
revolutions per day: 14.00655141
mean anomaly at epoch: 203.7603°
orbit number at epoch: 38202

The dashed part of the orbit path shows where the satellite is in the earth's shadow,  

DLR